Date String (YYYY-MM-DD hh:mm:ss) UTC,Instrument flags,Ambient pressure (hPa),Sample flow (lpm),Bypass flow (lpm),Sample temperature (°C),Ambient temperature (°C),ASC tube jacket temperature (°C),LED temperature (°C),Box temperature (°C),Sample RH (%),Span deviation,Mass concentration (μg/m³),Mass concentration (μg/m³),Mass concentration (μg/m³)
DateTimeUTC,F1_M11,P_M11,Q1_M11,Q2_M11,T1_M11,T2_M11,T3_M11,T4_M11,T5_M11,U1_M11,ZSPAN_M11,X0_M11,X2_M11,X1_M11
2022-05-08 15:00:00,,0816.3,4.99,0.00,24.2,23.6,00.0,33.1,26.1,21.0,0000.0,0027.71,0009.50,0004.03
2022-05-08 15:01:00,,0816.3,5.00,0.00,24.2,23.6,00.0,33.1,26.1,20.6,0000.0,0026.81,0009.48,0004.04
2022-05-08 15:02:00,,0816.3,5.01,0.00,24.2,23.6,00.0,33.1,26.1,20.8,0000.0,0026.04,0009.48,0004.06
2022-05-08 15:03:00,,0816.3,4.99,0.00,24.2,23.5,00.0,33.1,26.0,20.6,0000.0,0027.31,0009.53,0004.08
2022-05-08 15:04:00,,0816.3,5.01,0.00,24.2,23.5,00.0,33.1,26.0,21.0,0000.0,0027.64,0009.53,0004.08
2022-05-08 15:05:00,,0816.3,5.00,0.00,24.2,23.6,00.0,33.1,26.0,21.0,0000.0,0027.38,0009.43,0004.09
2022-05-08 15:06:00,,0816.3,5.01,0.00,24.2,23.5,00.0,33.1,26.0,21.0,0000.0,0028.34,0009.42,0004.10
2022-05-08 15:07:00,,0816.3,5.00,0.00,24.2,23.5,00.0,33.1,26.0,20.8,0000.0,0028.45,0009.44,0004.12
2022-05-08 15:08:00,,0816.3,4.99,0.00,24.2,23.6,00.0,33.1,26.0,20.6,0000.0,0028.92,0009.48,0004.13
2022-05-08 15:09:00,,0816.3,5.00,0.00,24.2,23.6,00.0,33.1,26.0,20.5,0000.0,0029.22,0009.53,0004.13
2022-05-08 15:10:00,,0816.2,5.00,0.00,24.2,23.7,00.0,33.1,26.1,20.4,0000.0,0028.89,0009.52,0004.12
2022-05-08 15:11:00,,0816.2,5.00,0.00,24.2,23.7,00.0,33.1,26.1,20.7,0000.0,0029.34,0009.71,0004.16
2022-05-08 15:12:00,,0816.2,5.00,0.00,24.2,23.7,00.0,33.2,26.1,20.7,0000.0,0030.25,0009.78,0004.17
2022-05-08 15:13:00,,0816.2,5.01,0.00,24.2,23.7,00.0,33.2,26.1,20.4,0000.0,0030.16,0009.76,0004.18
2022-05-08 15:14:00,,0816.1,5.00,0.00,24.2,23.6,00.0,33.2,26.1,20.3,0000.0,0028.85,0009.63,0004.19
2022-05-08 15:15:00,,0816.1,5.01,0.00,24.2,23.6,00.0,33.2,26.1,20.3,0000.0,0028.17,0009.56,0004.20
2022-05-08 15:16:00,,0816.2,5.00,0.00,24.2,23.6,00.0,33.2,26.1,20.1,0000.0,0028.73,0009.54,0004.18
2022-05-08 15:17:00,,0816.1,4.99,0.00,24.2,23.6,00.0,33.2,26.0,20.0,0000.0,0027.50,0009.52,0004.17
2022-05-08 15:18:00,,0816.1,4.99,0.00,24.2,23.6,00.0,33.2,26.1,20.3,0000.0,0027.68,0009.50,0004.16
2022-05-08 15:19:00,,0816.4,5.01,0.00,24.2,23.6,00.0,33.2,26.1,20.0,0000.0,0027.89,0009.47,0004.14
2022-05-08 15:20:00,,0816.2,4.99,0.00,24.2,23.6,00.0,33.2,26.1,19.9,0000.0,0027.88,0009.43,0004.14
2022-05-08 15:21:00,,0816.0,5.00,0.00,24.2,23.7,00.0,33.2,26.1,20.0,0000.0,0027.98,0009.47,0004.16
2022-05-08 15:22:00,,0816.0,5.00,0.00,24.2,23.7,00.0,33.2,26.1,20.1,0000.0,0027.75,0009.39,0004.14
2022-05-08 15:23:00,,0816.0,5.00,0.00,24.2,23.6,00.0,33.2,26.1,20.2,0000.0,0027.00,0009.37,0004.13
2022-05-08 15:24:00,,0816.0,5.00,0.00,24.2,23.6,00.0,33.2,26.1,20.3,0000.0,0027.10,0009.40,0004.14
2022-05-08 15:25:00,,0816.0,4.99,0.00,24.2,23.6,00.0,33.2,26.1,20.2,0000.0,0027.07,0009.49,0004.15
2022-05-08 15:26:00,,0815.9,5.01,0.00,24.2,23.6,00.0,33.2,26.1,20.5,0000.0,0026.97,0009.59,0004.16
2022-05-08 15:27:00,,0815.9,5.00,0.00,24.2,23.6,00.0,33.2,26.1,20.3,0001.3,0027.09,0009.70,0004.17
2022-05-08 15:28:00,,0815.9,5.01,0.00,24.2,23.6,00.0,33.2,26.1,20.3,0000.0,0027.66,0009.80,0004.18
2022-05-08 15:29:00,,0816.0,5.00,0.00,24.2,23.6,00.0,33.2,26.1,20.4,0000.0,0027.93,0009.85,0004.18
2022-05-08 15:30:00,,0816.0,5.00,0.00,24.2,23.7,00.0,33.2,26.1,20.5,0000.0,0027.65,0009.92,0004.21
2022-05-08 15:31:00,,0816.0,5.01,0.00,24.3,23.7,00.0,33.2,26.1,20.3,0000.0,0027.38,0009.98,0004.23
2022-05-08 15:32:00,,0816.0,5.01,0.00,24.3,23.7,00.0,33.2,26.2,20.0,0000.0,0027.65,0010.08,0004.23
2022-05-08 15:33:00,,0816.0,4.99,0.00,24.3,23.7,00.0,33.2,26.2,20.3,0000.0,0027.69,0010.07,0004.22
2022-05-08 15:34:00,,0816.0,5.00,0.00,24.3,23.7,00.0,33.2,26.2,20.5,0000.0,0027.43,0010.01,0004.22
2022-05-08 15:35:00,,0816.0,5.01,0.00,24.3,23.8,00.0,33.2,26.2,19.9,0000.0,0027.49,0009.93,0004.21
2022-05-08 15:36:00,,0815.9,4.98,0.00,24.3,23.8,00.0,33.2,26.2,19.7,0000.0,0027.60,0009.95,0004.20
2022-05-08 15:37:00,,0815.9,5.01,0.00,24.3,23.8,00.0,33.3,26.3,20.2,0000.0,0027.68,0009.97,0004.21
2022-05-08 15:38:00,,0815.9,5.00,0.00,24.4,23.8,00.0,33.3,26.3,20.7,0000.0,0029.05,0010.03,0004.20
2022-05-08 15:39:00,,0815.9,5.01,0.00,24.4,23.8,00.0,33.3,26.3,20.4,0000.0,0028.66,0009.99,0004.20
2022-05-08 15:40:00,,0815.8,4.99,0.00,24.4,23.9,00.0,33.3,26.3,20.2,0000.0,0027.65,0009.79,0004.20
2022-05-08 15:41:00,,0815.9,5.01,0.00,24.4,23.9,00.0,33.3,26.3,20.5,0000.0,0027.76,0009.76,0004.18
2022-05-08 15:42:00,,0815.8,4.99,0.00,24.4,23.9,00.0,33.3,26.3,19.9,0000.0,0027.65,0009.83,0004.19
2022-05-08 15:43:00,,0815.8,5.01,0.00,24.4,23.9,00.0,33.3,26.3,20.1,0000.4,0027.09,0009.78,0004.18
2022-05-08 15:44:00,,0815.8,4.99,0.00,24.4,23.9,00.0,33.3,26.3,19.7,0000.9,0026.52,0009.81,0004.18
2022-05-08 15:45:00,,0815.8,5.00,0.00,24.4,23.9,00.0,33.3,26.3,20.1,0000.8,0026.43,0009.74,0004.17
2022-05-08 15:46:00,,0815.8,5.00,0.00,24.5,24.0,00.0,33.3,26.3,19.8,-000.3,0026.20,0009.74,0004.16
2022-05-08 15:47:00,,0815.7,5.00,0.00,24.5,23.9,00.0,33.3,26.4,19.7,-000.9,0025.90,0009.65,0004.16
2022-05-08 15:48:00,,0815.8,5.00,0.00,24.5,23.9,00.0,33.4,26.4,20.0,-000.8,0026.32,0009.59,0004.13
2022-05-08 15:49:00,,0815.8,5.00,0.00,24.5,24.0,00.0,33.4,26.4,20.2,-000.7,0026.25,0009.62,0004.13
2022-05-08 15:50:00,,0815.8,4.99,0.00,24.5,24.0,00.0,33.4,26.4,20.6,-000.6,0024.98,0009.56,0004.14
2022-05-08 15:51:00,,0815.7,5.00,0.00,24.5,24.0,00.0,33.4,26.4,20.5,0000.0,0025.39,0009.69,0004.15
2022-05-08 15:52:00,,0815.7,5.00,0.00,24.5,24.0,00.0,33.4,26.4,20.4,-000.0,0025.60,0009.83,0004.17
2022-05-08 15:53:00,,0815.8,5.00,0.00,24.6,24.0,00.0,33.4,26.5,20.7,-000.2,0025.19,0009.70,0004.16
2022-05-08 15:54:00,,0815.8,4.99,0.00,24.6,24.0,00.0,33.4,26.5,20.7,0000.0,0025.53,0009.57,0004.14
2022-05-08 15:55:00,,0815.7,5.01,0.00,24.6,24.0,00.0,33.4,26.5,19.9,0000.0,0025.76,0009.49,0004.15
2022-05-08 15:56:00,,0815.7,5.00,0.00,24.6,24.0,00.0,33.4,26.4,20.3,0000.0,0025.83,0009.52,0004.17
2022-05-08 15:57:00,,0815.7,4.99,0.00,24.5,23.9,00.0,33.4,26.4,20.0,0000.0,0026.04,0009.53,0004.18
2022-05-08 15:58:00,,0815.7,5.00,0.00,24.6,24.0,00.0,33.4,26.4,19.9,0000.0,0026.51,0009.63,0004.17
2022-05-08 15:59:00,,0815.7,5.01,0.00,24.6,24.0,00.0,33.5,26.5,19.8,0000.0,0026.13,0009.67,0004.18
